Time,TemperatureF,DewpointF,PressureIn,WindDirection,WindDirectionDegrees,WindSpeedMPH,WindSpeedGustMPH,Humidity,HourlyPrecipIn,Conditions,Clouds,dailyrainin,SoftwareType,DateUTC
2013-03-03 13:15:00,61.3,46.8,30.06,South,180,0.8,4.9,59,0.00,,,0.00,,2013-03-03 12:15:00,
2013-03-03 13:20:00,61.5,46.6,30.06,SE,135,3.1,4.9,58,0.00,,,0.00,,2013-03-03 12:20:00,
2013-03-03 13:25:00,61.7,46.2,30.06,South,180,3.1,3.5,57,0.00,,,0.00,,2013-03-03 12:25:00,
2013-03-03 13:30:00,62.4,46.9,30.06,SSW,202,1.7,4.4,57,0.00,,,0.00,,2013-03-03 12:30:00,
2013-03-03 13:35:00,62.2,45.3,30.06,SW,225,3.1,4.4,54,0.00,,,0.00,,2013-03-03 12:35:00,
2013-03-03 13:40:00,62.1,45.7,30.06,SSE,157,2.2,2.2,55,0.00,,,0.00,,2013-03-03 12:40:00,
2013-03-03 13:45:00,62.4,46.4,30.09,SSE,157,1.3,5.8,56,0.00,,,0.00,,2013-03-03 12:45:00,
2013-03-03 13:50:00,62.2,46.2,30.09,SSW,202,2.6,2.6,56,0.00,,,0.00,,2013-03-03 12:50:00,
2013-03-03 13:55:00,61.5,44.6,30.09,SW,225,3.5,5.8,54,0.00,,,0.00,,2013-03-03 12:55:00,
2013-03-03 14:00:00,61.3,45.0,30.09,SW,225,2.2,3.5,55,0.00,,,0.00,,2013-03-03 13:00:00,
2013-03-03 14:05:00,61.9,45.9,30.06,SW,225,2.2,3.5,56,0.00,,,0.00,,2013-03-03 13:05:00,
2013-03-03 14:10:00,61.9,46.4,30.06,South,180,3.5,3.5,57,0.00,,,0.00,,2013-03-03 13:10:00,
2013-03-03 14:15:00,61.9,46.4,30.06,South,180,3.5,3.5,57,0.00,,,0.00,,2013-03-03 13:15:00,
2013-03-03 14:20:00,62.2,46.8,30.06,SW,225,3.1,4.0,57,0.00,,,0.00,,2013-03-03 13:20:00,
2013-03-03 14:25:00,62.4,46.4,30.06,SW,225,4.0,4.0,56,0.00,,,0.00,,2013-03-03 13:25:00,
2013-03-03 14:30:00,62.1,46.0,30.06,SW,225,8.5,9.8,56,0.00,,,0.00,,2013-03-03 13:30:00,
2013-03-03 14:35:00,61.7,46.8,30.06,SW,225,4.4,9.8,58,0.00,,,0.00,,2013-03-03 13:35:00,
2013-03-03 14:40:00,61.3,46.4,30.06,SW,225,3.5,5.3,58,0.00,,,0.00,,2013-03-03 13:40:00,
2013-03-03 14:45:00,61.2,46.6,30.06,SW,225,1.7,2.6,59,0.00,,,0.00,,2013-03-03 13:45:00,
2013-03-03 14:50:00,61.5,47.5,30.06,SW,225,4.0,4.0,60,0.00,,,0.00,,2013-03-03 13:50:00,
2013-03-03 14:55:00,61.7,47.7,30.06,SW,225,4.4,8.5,60,0.00,,,0.00,,2013-03-03 13:55:00,
2013-03-03 15:00:00,61.7,47.7,30.09,SW,225,4.4,8.5,60,0.00,,,0.00,,2013-03-03 14:00:00,
2013-03-03 15:05:00,61.2,47.5,30.09,SW,225,5.8,5.8,61,0.00,,,0.00,,2013-03-03 14:05:00,
2013-03-03 15:10:00,60.6,47.8,30.09,SW,225,7.1,0.0,63,0.00,,,0.00,,2013-03-03 14:10:00,
2013-03-03 15:15:00,60.6,47.8,30.09,SW,225,8.5,0.0,63,0.00,,,0.00,,2013-03-03 14:15:00,
2013-03-03 15:20:00,60.4,47.7,30.09,SW,225,7.1,8.9,63,0.00,,,0.00,,2013-03-03 14:20:00,
2013-03-03 15:25:00,60.4,48.0,30.09,SW,225,6.7,8.9,64,0.00,,,0.00,,2013-03-03 14:25:00,
2013-03-03 15:30:00,61.2,48.7,30.06,South,180,2.2,5.8,64,0.00,,,0.00,,2013-03-03 14:30:00,
2013-03-03 15:35:00,61.3,48.6,30.06,SE,135,4.4,4.9,63,0.00,,,0.00,,2013-03-03 14:35:00,
2013-03-03 15:40:00,60.8,47.7,30.06,SW,225,8.5,8.5,62,0.00,,,0.00,,2013-03-03 14:40:00,
2013-03-03 15:45:00,60.8,48.0,30.06,SW,225,4.4,4.4,63,0.00,,,0.00,,2013-03-03 14:45:00,
2013-03-03 15:50:00,60.8,48.0,30.06,SW,225,5.3,7.6,63,0.00,,,0.00,,2013-03-03 14:50:00,
2013-03-03 15:55:00,60.6,47.8,30.06,SW,225,7.1,11.6,63,0.00,,,0.00,,2013-03-03 14:55:00,
2013-03-03 16:00:00,60.6,47.8,30.06,SW,225,4.4,6.2,63,0.00,,,0.00,,2013-03-03 15:00:00,
2013-03-03 16:05:00,60.8,48.0,30.06,SW,225,5.3,0.0,63,0.00,,,0.00,,2013-03-03 15:05:00,
2013-03-03 16:10:00,60.8,48.0,30.06,SW,225,4.4,6.2,63,0.00,,,0.00,,2013-03-03 15:10:00,
2013-03-03 16:15:00,60.8,48.0,30.06,SW,225,4.4,6.2,63,0.00,,,0.00,,2013-03-03 15:15:00,
2013-03-03 16:20:00,60.6,47.5,30.06,SW,225,4.4,4.4,62,0.00,,,0.00,,2013-03-03 15:20:00,
2013-03-03 16:25:00,60.6,47.5,30.06,South,180,4.0,4.0,62,0.00,,,0.00,,2013-03-03 15:25:00,
2013-03-03 16:30:00,60.6,47.8,30.06,South,180,6.2,6.2,63,0.00,,,0.00,,2013-03-03 15:30:00,
2013-03-03 16:40:00,60.3,48.0,30.06,SW,225,5.3,5.8,64,0.00,,,0.00,,2013-03-03 15:40:00,
2013-03-03 16:45:00,60.3,47.5,30.06,SW,225,3.1,5.8,63,0.00,,,0.00,,2013-03-03 15:45:00,
2013-03-03 16:50:00,60.4,48.6,30.06,SW,225,3.5,3.5,65,0.00,,,0.00,,2013-03-03 15:50:00,
2013-03-03 16:55:00,60.1,47.8,30.06,SW,225,5.8,7.6,64,0.00,,,0.00,,2013-03-03 15:55:00,
2013-03-03 17:00:00,59.7,47.5,30.06,SW,225,4.9,5.3,64,0.00,,,0.00,,2013-03-03 16:00:00,
2013-03-03 17:05:00,59.5,47.7,30.09,SW,225,4.4,4.4,65,0.00,,,0.00,,2013-03-03 16:05:00,
2013-03-03 17:10:00,59.4,47.5,30.09,SW,225,5.3,5.3,65,0.00,,,0.00,,2013-03-03 16:10:00,
2013-03-03 17:15:00,59.2,47.7,30.09,SSW,202,4.9,0.0,66,0.00,,,0.00,,2013-03-03 16:15:00,
2013-03-03 17:20:00,59.2,48.9,30.09,SW,225,4.4,5.3,69,0.00,,,0.00,,2013-03-03 16:20:00,
2013-03-03 17:25:00,58.8,48.9,30.09,SW,225,3.5,4.4,70,0.00,,,0.00,,2013-03-03 16:25:00,
2013-03-03 17:30:00,58.6,48.7,30.09,SW,225,3.1,4.4,70,0.00,,,0.00,,2013-03-03 16:30:00,
2013-03-03 17:35:00,58.5,48.9,30.09,SW,225,2.6,4.9,71,0.00,,,0.00,,2013-03-03 16:35:00,
2013-03-03 17:40:00,58.1,48.7,30.09,SW,225,3.1,4.4,71,0.00,,,0.00,,2013-03-03 16:40:00,
2013-03-03 17:45:00,57.7,48.7,30.09,SW,225,3.1,4.0,72,0.00,,,0.00,,2013-03-03 16:45:00,
2013-03-03 17:50:00,57.4,48.7,30.09,SW,225,3.5,4.9,73,0.00,,,0.00,,2013-03-03 16:50:00,
2013-03-03 17:55:00,57.0,48.4,30.09,SW,225,2.2,3.5,73,0.00,,,0.00,,2013-03-03 16:55:00,
2013-03-03 18:00:00,56.7,48.4,30.06,SW,225,2.6,5.3,74,0.00,,,0.00,,2013-03-03 17:00:00,
2013-03-03 18:05:00,56.3,48.0,30.06,SW,225,2.6,3.1,74,0.00,,,0.00,,2013-03-03 17:05:00,
2013-03-03 18:10:00,56.1,47.8,30.06,SW,225,1.3,2.6,74,0.00,,,0.00,,2013-03-03 17:10:00,
2013-03-03 18:15:00,55.9,47.7,30.06,SW,225,1.3,1.3,74,0.00,,,0.00,,2013-03-03 17:15:00,
2013-03-03 18:20:00,55.6,47.7,30.06,SW,225,1.7,2.6,75,0.00,,,0.00,,2013-03-03 17:20:00,
2013-03-03 18:25:00,55.4,47.5,30.09,WSW,247,2.6,3.5,75,0.00,,,0.00,,2013-03-03 17:25:00,
2013-03-03 18:30:00,55.0,47.1,30.09,SW,225,2.2,4.4,75,0.00,,,0.00,,2013-03-03 17:30:00,
2013-03-03 18:35:00,54.9,47.3,30.06,SW,225,1.7,2.2,76,0.00,,,0.00,,2013-03-03 17:35:00,
2013-03-03 18:40:00,54.7,47.1,30.06,SW,225,1.3,2.2,76,0.00,,,0.00,,2013-03-03 17:40:00,
2013-03-03 18:45:00,54.5,46.9,30.09,SW,225,0.4,0.0,76,0.00,,,0.00,,2013-03-03 17:45:00,
2013-03-03 18:50:00,54.3,46.8,30.09,SW,225,0.0,0.0,76,0.00,,,0.00,,2013-03-03 17:50:00,
2013-03-03 18:55:00,54.0,46.4,30.06,SW,225,0.4,1.3,76,0.00,,,0.00,,2013-03-03 17:55:00,
2013-03-03 19:00:00,54.0,46.4,30.06,SW,225,0.8,0.0,76,0.00,,,0.00,,2013-03-03 18:00:00,
2013-03-03 19:05:00,53.8,46.2,30.12,SW,225,0.4,0.0,76,0.00,,,0.00,,2013-03-03 18:05:00,
2013-03-03 19:10:00,53.6,46.0,30.12,SW,225,0.4,0.8,76,0.00,,,0.00,,2013-03-03 18:10:00,
2013-03-03 19:15:00,53.4,46.2,30.12,SW,225,0.8,2.6,77,0.00,,,0.00,,2013-03-03 18:15:00,
2013-03-03 19:20:00,53.2,46.0,30.12,SW,225,0.8,2.6,77,0.00,,,0.00,,2013-03-03 18:20:00,
2013-03-03 19:25:00,53.2,46.0,30.09,SW,225,0.0,0.0,77,0.00,,,0.00,,2013-03-03 18:25:00,
2013-03-03 19:30:00,53.1,45.9,30.09,SW,225,0.8,0.0,77,0.00,,,0.00,,2013-03-03 18:30:00,
2013-03-03 19:35:00,52.9,45.9,30.12,SW,225,0.8,3.1,77,0.00,,,0.00,,2013-03-03 18:35:00,
2013-03-03 19:40:00,52.7,45.7,30.12,SW,225,0.4,0.0,77,0.00,,,0.00,,2013-03-03 18:40:00,
2013-03-03 19:45:00,52.7,45.7,30.12,SW,225,0.0,0.4,77,0.00,,,0.00,,2013-03-03 18:45:00,
2013-03-03 19:50:00,52.5,45.5,30.12,SW,225,0.8,1.7,77,0.00,,,0.00,,2013-03-03 18:50:00,
2013-03-03 19:55:00,52.3,45.7,30.12,SW,225,1.7,2.2,78,0.00,,,0.00,,2013-03-03 18:55:00,
2013-03-03 20:00:00,52.2,45.5,30.12,SW,225,1.3,1.3,78,0.00,,,0.00,,2013-03-03 19:00:00,
2013-03-03 20:05:00,52.0,45.3,30.15,SW,225,1.3,1.3,78,0.00,,,0.00,,2013-03-03 19:05:00,
2013-03-03 20:10:00,51.8,45.1,30.15,SW,225,1.3,2.2,78,0.00,,,0.00,,2013-03-03 19:10:00,
2013-03-03 20:15:00,51.6,45.0,30.15,SW,225,1.7,2.2,78,0.00,,,0.00,,2013-03-03 19:15:00,
2013-03-03 20:20:00,51.4,44.8,30.15,SW,225,1.3,2.2,78,0.00,,,0.00,,2013-03-03 19:20:00,
2013-03-03 20:25:00,51.4,45.1,30.15,SW,225,1.3,2.2,79,0.00,,,0.00,,2013-03-03 19:25:00,
2013-03-03 20:30:00,51.3,44.6,30.15,SW,225,1.3,1.3,78,0.00,,,0.00,,2013-03-03 19:30:00,
2013-03-03 20:35:00,51.3,45.0,30.12,SW,225,0.8,2.2,79,0.00,,,0.00,,2013-03-03 19:35:00,
2013-03-03 20:40:00,51.3,45.0,30.12,SW,225,0.4,0.4,79,0.00,,,0.00,,2013-03-03 19:40:00,
2013-03-03 20:45:00,51.1,44.4,30.15,SW,225,0.0,0.0,78,0.00,,,0.00,,2013-03-03 19:45:00,
2013-03-03 20:50:00,51.1,44.4,30.15,West,270,1.3,2.2,78,0.00,,,0.00,,2013-03-03 19:50:00,
2013-03-03 20:55:00,51.1,44.4,30.12,West,270,1.3,0.0,78,0.00,,,0.00,,2013-03-03 19:55:00,
2013-03-03 21:00:00,51.1,44.4,30.12,West,270,0.8,0.0,78,0.00,,,0.00,,2013-03-03 20:00:00,
2013-03-03 21:05:00,51.1,44.4,30.12,West,270,0.8,1.3,78,0.00,,,0.00,,2013-03-03 20:05:00,
2013-03-03 21:10:00,50.9,44.2,30.12,NW,315,0.4,0.0,78,0.00,,,0.00,,2013-03-03 20:10:00,
2013-03-03 21:15:00,50.9,44.2,30.15,NW,315,0.0,0.4,78,0.00,,,0.00,,2013-03-03 20:15:00,
2013-03-03 21:20:00,50.9,43.9,30.15,NW,315,0.4,0.4,77,0.00,,,0.00,,2013-03-03 20:20:00,
2013-03-03 21:25:00,51.1,44.1,30.12,NW,315,1.3,0.0,77,0.00,,,0.00,,2013-03-03 20:25:00,
2013-03-03 21:30:00,51.1,44.1,30.12,NW,315,0.0,0.0,77,0.00,,,0.00,,2013-03-03 20:30:00,
2013-03-03 21:35:00,51.1,44.1,30.15,NW,315,0.0,0.0,77,0.00,,,0.00,,2013-03-03 20:35:00,
2013-03-03 21:40:00,51.1,44.1,30.15,NW,315,0.0,0.8,77,0.00,,,0.00,,2013-03-03 20:40:00,
2013-03-03 21:45:00,50.9,43.9,30.17,NW,315,0.0,0.8,77,0.00,,,0.00,,2013-03-03 20:45:00,
2013-03-03 21:50:00,50.9,43.9,30.17,NW,315,0.0,0.8,77,0.00,,,0.00,,2013-03-03 20:50:00,
2013-03-03 21:55:00,50.9,43.9,30.15,NW,315,0.0,0.0,77,0.00,,,0.00,,2013-03-03 20:55:00,
2013-03-03 22:00:00,50.9,43.9,30.15,NW,315,0.0,0.0,77,0.00,,,0.00,,2013-03-03 21:00:00,
2013-03-03 22:06:00,50.9,43.9,30.15,NW,315,0.0,0.0,77,0.00,,,0.00,,2013-03-03 21:06:00,
2013-03-03 22:10:00,50.9,43.9,30.15,NW,315,0.0,0.0,77,0.00,,,0.00,,2013-03-03 21:10:00,
2013-03-03 22:16:00,50.9,43.9,30.15,NW,315,0.0,0.0,77,0.00,,,0.00,,2013-03-03 21:16:00,
2013-03-03 22:21:00,50.7,43.7,30.15,NW,315,0.0,0.0,77,0.00,,,0.00,,2013-03-03 21:21:00,
2013-03-03 22:26:00,50.7,43.7,30.15,NW,315,0.0,0.0,77,0.00,,,0.00,,2013-03-03 21:26:00,
2013-03-03 22:31:00,50.5,43.5,30.15,NW,315,0.0,0.0,77,0.00,,,0.00,,2013-03-03 21:31:00,
2013-03-03 22:36:00,50.5,43.5,30.15,NW,315,0.0,0.0,77,0.00,,,0.00,,2013-03-03 21:36:00,
2013-03-03 22:41:00,50.5,43.5,30.15,NW,315,0.0,0.0,77,0.00,,,0.00,,2013-03-03 21:41:00,
2013-03-03 22:46:00,50.5,43.5,30.15,NW,315,0.0,0.0,77,0.00,,,0.00,,2013-03-03 21:46:00,
2013-03-03 22:51:00,50.5,43.9,30.15,East,90,0.0,0.0,78,0.00,,,0.00,,2013-03-03 21:51:00,
2013-03-03 22:56:00,50.5,43.9,30.15,East,90,0.0,0.0,78,0.00,,,0.00,,2013-03-03 21:56:00,
2013-03-03 23:01:00,50.4,43.7,30.15,East,90,0.0,1.7,78,0.00,,,0.00,,2013-03-03 22:01:00,
2013-03-03 23:06:00,50.4,43.7,30.15,East,90,0.4,2.2,78,0.00,,,0.00,,2013-03-03 22:06:00,
2013-03-03 23:11:00,50.4,43.7,30.15,East,90,1.7,2.2,78,0.00,,,0.00,,2013-03-03 22:11:00,
2013-03-03 23:16:00,50.2,43.9,30.15,East,90,1.3,1.7,79,0.00,,,0.00,,2013-03-03 22:16:00,
2013-03-03 23:21:00,50.4,44.1,30.15,East,90,0.4,0.0,79,0.00,,,0.00,,2013-03-03 22:21:00,
2013-03-03 23:26:00,50.4,44.1,30.15,East,90,0.4,0.0,79,0.00,,,0.00,,2013-03-03 22:26:00,
2013-03-03 23:31:00,50.4,44.1,30.15,East,90,0.4,0.0,79,0.00,,,0.00,,2013-03-03 22:31:00,
2013-03-03 23:36:00,50.2,43.9,30.15,East,90,0.0,0.0,79,0.00,,,0.00,,2013-03-03 22:36:00,
2013-03-03 23:41:00,50.2,43.9,30.15,East,90,0.4,0.0,79,0.00,,,0.00,,2013-03-03 22:41:00,
2013-03-03 23:46:00,50.2,43.9,30.15,East,90,0.8,0.0,79,0.00,,,0.00,,2013-03-03 22:46:00,
2013-03-03 23:51:00,50.2,44.2,30.15,East,90,0.8,2.2,80,0.00,,,0.00,,2013-03-03 22:51:00,
2013-03-03 23:56:00,50.0,44.1,30.15,East,90,2.6,2.6,80,0.00,,,0.00,,2013-03-03 22:56:00,